If you wish to contribute or participate in the discussions about articles you are invited to join SKYbrary as a registered user

 Actions

Arequipa/Rodríguez Ballón International

From SKYbrary Wiki

SPQU
Airport
ICAO: SPQU – IATA: AQP
Summary
Name Arequipa/Rodríguez Ballón International
Region South America and Caribbean
Territory Peru PE.gif
Location Ro Seco, Arequipa
Serving Arequipa
Elevation 2,560.32 m8,400 ft2,560.32 m
Coordinates -16° 20' 25.0008", -71° 34' 22.0008"
Runways
Designator Length Width Surface ROPS
9/27 2980 m9,776.903 ft 45 m147.638 ft ASP /


METAR
Observation SPQU 260700Z 06011KT CAVOK 14/M18 Q1023 RMK PP000
Station Arequipa
Date/Time 26 September 2018 07:00:00
Wind direction 60°
Wind speed 11 kts
Lowest cloud amount clouds and visibility OK
Temperature 14°C
Dew point
Humidity 9%
QNH 1023 hPa
Weather condition n/a

Rodríguez Ballón International Airport is an airport serving Peru's second largest city, Arequipa. This airport and Cusco's Alejandro Velasco Astete International Airport are the main air hubs in southern Peru.

Climatology

Cool Desert climate (Köppen climate classification BWk).

Maps

Terrain

Loading map...

Airport Layout

Loading map...


Accidents & Serious Incidents at or in vicinity of SPQU

None on SKYbrary